Regional Weather Roundup
Issued by NWS Huntsville, AL

Home | Current Version | Previous Version | Text Only | Print | Product List | Glossary On
Versions: 1 2 3 4 5 6 7 8 9 10 11 12 13 14 15 16 17 18 19 20 21 22 23 24 25 26 27 28 29 30 31 32 33 34 35 36 37 38 39 40 41 42 43 44 45 46 47 48 49 50
000
ASUS44 KHUN 221710
RWRHUN

WEATHER ROUNDUP FOR THE TENNESSEE VALLEY
NATIONAL WEATHER SERVICE HUNTSVILLE AL
1200 PM CDT FRI SEP 22 2017

ALZ001>004-221800-
NORTHWEST ALABAMA

CITY           SKY/WX    TMP DP  RH WIND       PRES   REMARKS
COURTLAND HCN    N/A     82 N/A N/A CALM        N/A
RUSSELLVILLE     N/A     82 N/A N/A MISG        N/A
SHOALS AIRPORT SUNNY     85  71  63 CALM      30.07F HX  90
$$

ALZ005>007-016-221800-
NORTH CENTRAL ALABAMA

CITY           SKY/WX    TMP DP  RH WIND       PRES   REMARKS
DECATUR AP     SUNNY     85  72  65 CALM      30.07F HX  91
HUNTSVILLE AP  MOSUNNY   86  72  62 CALM      30.06F HX  92
MERIDIANVILLE    N/A     84  64  51 CALM      30.07F
REDSTONE ARSN  SUNNY    N/A N/A N/A NW3       30.06F
VINEMONT AP    FAIR      86  69  57 SE3       30.09F HX  90
$$

ALZ008>010-221800-
NORTHEAST ALABAMA

CITY           SKY/WX    TMP DP  RH WIND       PRES   REMARKS
ALBERTVILLE    SUNNY     82  73  74 CALM      30.07F
FORT PAYNE     SUNNY     82  64  54 E3        30.07F
SCOTTSBORO HCN   N/A     81 N/A N/A MISG        N/A
VALLEY HEAD      N/A     82 N/A N/A MISG        N/A
$$

TNZ076-096-097-221800-
SOUTHEASTERN MIDDLE TENNESSEE

CITY           SKY/WX    TMP DP  RH WIND       PRES   REMARKS
TULLAHOMA      SUNNY     82  64  54 S5        30.10F
WINCHESTER     MOSUNNY   86  66  51 CALM      30.08F
$$

...SURROUNDING SITES...

CITY           SKY/WX    TMP DP  RH WIND       PRES   REMARKS
ATLANTA        MOSUNNY   85  68  56 VRB3      30.07F
ANNISTON       SUNNY     86  71  60 CALM      30.05F HX  91
BIRMINGHAM     MOSUNNY   87  67  51 VRB3      30.07F HX  90
CHATTANOOGA    MOSUNNY   84  65  52 CALM      30.08F
DALTON         SUNNY     82  68  61 CALM      30.09F
GADSDEN        SUNNY     85  73  67 VRB6      30.06F HX  91
GOLDEN TRNGL   SUNNY     88  71  57 VRB3      30.03F HX  94
HALEYVILLE     FAIR      85  71  63 VRB5      30.09F HX  90
JACKSON TN     SUNNY     88  72  58 VRB3      30.06F HX  94
MEMPHIS        MOSUNNY   88  68  51 E5        30.05F HX  91
NASHVILLE      MOSUNNY   87  66  49 CALM      30.07F
OXFORD MS      FAIR      86  68  54 CALM      30.06F
ROME           SUNNY     85  71  63 SW3       30.06F HX  90
SAVANNAH       SUNNY     86  72  62 CALM      30.05F HX  92
TUPELO         SUNNY     88  68  51 S6        30.04F HX  91
TUSCALOOSA     SUNNY     89  72  56 NE5       30.03F HX  96
$$

...GULF COAST WEATHER...

CITY           SKY/WX    TMP DP  RH WIND       PRES   REMARKS
GULFPORT       MOSUNNY   88  73  61 CALM      29.99S HX  95
PASCAGOULA     SUNNY     87  71  58 SE3       30.00S HX  93
MOBILE         MOSUNNY   88  71  57 E8        30.01F HX  94
GULF SHORES    MOSUNNY   87  74  66 E7G17     29.99F HX  95
PENSACOLA      MOSUNNY   88  69  53 E5        29.99F HX  92
DESTIN         SUNNY     88  69  53 NE6       29.99F HX  92
PANAMA CITY    SUNNY     87  73  62 NE6       29.99F HX  94
APPALACHICOLA  SUNNY     84  76  76 SE12      29.99F HX  93
$$




USA.gov is the U.S. government's official web portal to all federal, state and local government web resources and services.